Weather History for Parsons, KS

Change the Weather History Date:

Tuesday, July 9, 2013

  Actual Average Record
Temperature  
Mean Temperature 88 °F -  
Max Temperature 100 °F 93 °F 103 °F (1966)
Min Temperature 75 °F 71 °F 57 °F (1952)
Cooling Degree Days 22    
Growing Degree Days 38 (Base 50)    
Moisture  
Dew Point 70 °F    
Average Humidity 58    
Maximum Humidity 82    
Minimum Humidity 36    
Precipitation  
Precipitation 0.00 in - - ()
Sea Level Pressure  
Sea Level Pressure 29.96 in    
Wind  
Wind Speed 6 mph (South)    
Max Wind Speed 14 mph    
Max Gust Speed 23 mph    
Visibility 10 miles    
Events      
Averages and records for this station are not official NWS values.
T = Trace of Precipitation, MM = Missing Value Source: NWS Daily Summary

Daily Weather History Graph

Daily Weather History Graph

Search for Another Location

Airport:

Trip Planner

Search our weather history database for the weather conditions in past years. The results will help you decide how hot, cold, wet, or windy it might be!

Date:

Astronomy

Jul. 09, 2013 Rise Set
Actual Time 6:09 AM CDT 8:44 PM CDT
Civil Twilight 5:39 AM CDT 9:15 PM CDT
Nautical Twilight 5:01 AM CDT 9:53 PM CDT
Astronomical Twilight 4:18 AM CDT 10:35 PM CDT
Moon 7:31 AM CDT (7/9) 9:26 PM CDT (7/9)
Length of Visible Light 15h 36m
Length of Day
14h 35m
New Moon, 2% of the Moon is Illuminated
Jul 9
New Moon
Jul 15
First Quarter
Jul 22
Full
Jul 29
Last Quarter
Aug 6
New

Hourly Weather History & Observations

Time (CDT) Temp. Heat Index Dew Point Humidity Pressure Visibility Wind Dir Wind Speed Gust Speed Precip Events Conditions
12:52 AM 80.1 °F 82.9 °F 69.1 °F 69% 30.00 in 10.0 mi South 4.6 mph - N/A   Clear
1:52 AM 79.0 °F - 69.1 °F 72% 29.99 in 10.0 mi SSE 3.5 mph - N/A   Clear
2:52 AM 75.9 °F - 69.1 °F 79% 30.01 in 10.0 mi Calm Calm - N/A   Clear
3:52 AM 77.0 °F - 69.1 °F 76% 30.00 in 10.0 mi South 4.6 mph - N/A   Clear
4:52 AM 75.9 °F - 69.1 °F 79% 30.00 in 10.0 mi South 4.6 mph - N/A   Clear
5:52 AM 75.9 °F - 69.1 °F 79% 29.99 in 10.0 mi South 4.6 mph - N/A   Clear
6:52 AM 75.9 °F - 70.0 °F 82% 30.01 in 10.0 mi South 4.6 mph - N/A   Clear
7:52 AM 79.0 °F - 70.0 °F 74% 30.02 in 10.0 mi Variable 6.9 mph - N/A   Clear
8:52 AM 82.9 °F 87.5 °F 71.1 °F 67% 30.02 in 10.0 mi South 9.2 mph - N/A   Clear
9:52 AM 87.1 °F 92.8 °F 71.1 °F 59% 30.00 in 10.0 mi South 10.4 mph 17.3 mph N/A   Clear
10:52 AM 89.1 °F 94.1 °F 70.0 °F 53% 30.00 in 10.0 mi South 11.5 mph 18.4 mph N/A   Clear
11:52 AM 91.9 °F 98.4 °F 71.1 °F 50% 29.98 in 10.0 mi South 11.5 mph 20.7 mph N/A   Clear
12:52 PM 95.0 °F 102.5 °F 71.1 °F 46% 29.97 in 10.0 mi South 11.5 mph 19.6 mph N/A   Clear
1:52 PM 97.0 °F 103.5 °F 70.0 °F 41% 29.95 in 10.0 mi South 10.4 mph - N/A   Clear
2:52 PM 99.0 °F 105.5 °F 69.1 °F 38% 29.94 in 10.0 mi South 12.7 mph 23.0 mph N/A   Clear
3:52 PM 100.0 °F 107.0 °F 69.1 °F 37% 29.94 in 10.0 mi SSW 11.5 mph 18.4 mph N/A   Clear
4:52 PM 100.0 °F 107.0 °F 69.1 °F 37% 29.92 in 10.0 mi SSW 13.8 mph - N/A   Clear
5:52 PM 99.0 °F 104.2 °F 68.0 °F 36% 29.91 in 10.0 mi SSW 9.2 mph - N/A   Clear
6:52 PM 97.0 °F 101.0 °F 66.9 °F 37% 29.90 in 10.0 mi South 10.4 mph - N/A   Clear
7:52 PM 93.0 °F 99.0 °F 70.0 °F 47% 29.88 in 10.0 mi South 6.9 mph - N/A   Clear
8:52 PM 90.0 °F 94.5 °F 69.1 °F 50% 29.89 in 10.0 mi South 6.9 mph - N/A   Clear
9:52 PM 88.0 °F 92.1 °F 69.1 °F 53% 29.91 in 10.0 mi South 5.8 mph - N/A   Clear
10:52 PM 84.9 °F 89.4 °F 70.0 °F 61% 29.93 in 10.0 mi South 4.6 mph - N/A   Clear
11:52 PM 82.9 °F 87.0 °F 70.0 °F 65% 29.94 in 10.0 mi South 5.8 mph - N/A   Clear